This is the latest recevied weather packets stored in our database for station/object WX1NWA. If no packets are shown the sender has not sent any weather packets the latest 10 day(s).
| Time | Temp. | Humidity | Pressure | Rain* | Wind** | Luminosity | Snow |
|---|---|---|---|---|---|---|---|
| 1777234628 | 22.78° C | 78% | 1013 hPa | 0 mm | - | 273 W/m² | - |
| 1777234323 | 22.22° C | 78% | 1013 hPa | 0 mm | - | 194 W/m² | - |
| 1777234020 | 22.78° C | 75% | 1013.1 hPa | 0 mm | - | 175 W/m² | - |
| 1777233716 | 23.33° C | 74% | 1013.1 hPa | 0 mm | - | 219 W/m² | - |
| 1777233411 | 22.78° C | 76% | 1013.3 hPa | 0 mm | - | 791 W/m² | - |
| 1777233111 | 23.33° C | 74% | 1013.2 hPa | 0 mm | - | 300 W/m² | - |
| 1777232807 | 23.33° C | 73% | 1013.2 hPa | 0 mm | - | 288 W/m² | - |
| 1777232506 | 22.78° C | 73% | 1013.3 hPa | 0 mm | - | 707 W/m² | - |
| 1777232204 | 23.33° C | 73% | 1013.4 hPa | 0 mm | - | 737 W/m² | - |
| 1777231899 | 23.33° C | 72% | 1013.4 hPa | 0 mm | - | 716 W/m² | - |
| 1777231597 | 23.89° C | 73% | 1013.5 hPa | 0 mm | - | 661 W/m² | - |
| 1777231293 | 23.33° C | 72% | 1013.3 hPa | 0 mm | - | 660 W/m² | - |
| 1777230989 | 22.78° C | 77% | 1013.4 hPa | 0 mm | - | 666 W/m² | - |
| 1777230685 | 22.78° C | 75% | 1013.5 hPa | 0 mm | - | 681 W/m² | - |
| 1777230381 | 23.33° C | 75% | 1013.3 hPa | 0 mm | - | 715 W/m² | - |
| 1777230077 | 23.33° C | 75% | 1013.5 hPa | 0 mm | - | 696 W/m² | - |
| 1777229774 | 22.78° C | 76% | 1013.2 hPa | 0 mm | - | 680 W/m² | - |
| 1777229471 | 22.78° C | 77% | 1013.6 hPa | 0 mm | - | 685 W/m² | - |
| 1777229168 | 22.78° C | 76% | 1013.6 hPa | 0 mm | - | 692 W/m² | - |
| 1777228865 | 22.78° C | 76% | 1013.7 hPa | 0 mm | - | 678 W/m² | - |
| 1777228560 | 22.22° C | 78% | 1013.9 hPa | 0 mm | - | 679 W/m² | - |
| 1777228257 | 22.22° C | 77% | 1013.9 hPa | 0 mm | - | 706 W/m² | - |
| 1777227956 | 22.22° C | 77% | 1014.1 hPa | 0 mm | - | 716 W/m² | - |
| 1777227651 | 22.22° C | 76% | 1014.1 hPa | 0 mm | - | 708 W/m² | - |
| 1777227347 | 22.78° C | 75% | 1014.3 hPa | 0 mm | - | 724 W/m² | - |
* Rain latest hour (hover to see other rain measurements)
** Current wind speed in m/s (hover to see current wind gust speed)